Flag for Germany Weather past 2 weeks in Kempten, Bavaria, Germany

Now
43 °F

Overcast.


Feels Like: 40 °F
Forecast: 43 / 49 °F
Wind: 6 mph from Southwest

Location: Kempten

Current Time: Mar 29, 2015 at 12:20:08 AM

Latest Report: Mar 29, 2015 at 12:00 AM


Visibility: 19 mi

Pressure: 30.08 "Hg

Humidity: 86%

Dew point: 39 °F

Location of KemptenLocation

Historic Weather in Kempten — Graph

°F

Kempten temperature yesterday

Maximum temperature yesterday: 53 °F (at 3:00 PM)
Minimum temperature yesterday: 35 °F (at 7:00 AM)
Average temperature yesterday: 44 °F

Past Weeks' High & Low Weather Summary

 TemperatureHumidityPressure
High63 °F (Mar 17, 2:00 PM)98% (Mar 22, 2:00 AM)30.31 "Hg (Mar 22, 2:00 AM)
Low23 °F (Mar 14, 7:00 AM)27% (Mar 17, 2:00 PM)29.47 "Hg (Mar 25, 1:00 PM)
Average42 °F73%30.07 "Hg
* Reported Mar 13 9:00 PM — Mar 28 9:00 PM, Kempten, Weather by CustomWeather, © 2015

Note: Actual official high and low records may vary slightly from our data, if they occured in-between our weather recording intervals... More about our weather records

Advertising

Kempten weather history for previous 24 hours

 ConditionsComfort  
Time TempWeatherWind HumidityBarometerVisibility
9:00 PM
Sat, Mar 28
43 °FLight freezing rain. Overcast.3 mph81%30.12 "Hg9 mi
8:00 PM47 °FOvercast.6 mph61%30.10 "Hg12 mi
7:00 PM50 °FOvercast.3 mph46%30.06 "Hg17 mi
6:00 PM51 °FOvercast.3 mph41%30.05 "Hg22 mi
5:00 PM53 °FSunny.6 mph33%30.04 "Hg14 mi
3:00 PM53 °FSunny.6 mph30%30.06 "Hg5 mi
2:00 PM52 °FSunny.5 mph35%30.09 "Hg9 mi
1:00 PM50 °FSunny.5 mph42%30.12 "Hg14 mi
12:00 PM48 °FSunny.3 mph46%30.15 "Hg11 mi
11:00 AM47 °FScattered clouds.3 mph49%30.18 "Hg17 mi
9:00 AM43 °FOvercast.1 mph62%30.24 "Hg19 mi
8:00 AM38 °FOvercast.1 mph81%30.28 "Hg13 mi
7:00 AM35 °FOvercast.2 mph93%30.30 "Hg5 mi
6:00 AM35 °FOvercast.1 mph90%30.31 "Hg9 mi
3:00 AM36 °FOvercast.1 mph91%30.30 "Hg8 mi
2:00 AM35 °FOvercast.1 mph90%30.31 "Hg8 mi
1:00 AM35 °FPassing clouds.1 mph91%30.31 "Hg8 mi
12:00 AM38 °FOvercast.1 mph88%30.29 "Hg9 mi
Weather by CustomWeather, © 2015

See weather overviewHow to use our weather pages